Homer, AK

6:43 AM AKST on January 17, 2017 (GMT -0900)
Homer

Weather History for PAHO - September, 2013

Change the Weather History Date:

Friday, September 13, 2013

  Actual Average Record
Temperature  
Mean Temperature 58 °F -  
Max Temperature 62 °F 55 °F 65 °F (1997)
Min Temperature 53 °F 43 °F 31 °F (1948)
Degree Days  
Heating Degree Days 8    
Growing Degree Days 8 (Base 50)    
Moisture  
Dew Point 46 °F    
Average Humidity 68    
Maximum Humidity 88    
Minimum Humidity 52    
Precipitation  
Precipitation 0.01 in - - ()
Sea Level Pressure  
Sea Level Pressure 29.84 in    
Wind  
Wind Speed 6 mph (East)    
Max Wind Speed 13 mph    
Max Gust Speed -    
Visibility 10 miles    
Events Rain    
Averages and records for this station are not official NWS values.
T = Trace of Precipitation, MM = Missing Value Source: NWS Daily Summary

Daily Weather History Graph

Daily Weather History Graph

Search for Another Location

Airport or City:

Trip Planner

Search our weather history database for the weather conditions in past years. The results will help you decide how hot, cold, wet, or windy it might be!

Date:

Astronomy

Sep. 13, 2013 Rise Set
Actual Time 7:30 AM AKDT 8:31 PM AKDT
Civil Twilight 6:48 AM AKDT 9:13 PM AKDT
Nautical Twilight 5:56 AM AKDT 10:04 PM AKDT
Astronomical Twilight 4:57 AM AKDT 11:02 PM AKDT
Moon 5:34 PM AKDT (9/13) 12:01 AM AKDT (9/13)
Length of Visible Light 14h 24m
Length of Day
13h 00m
Waxing Gibbous, 63% of the Moon is Illuminated
Sep 13
Waxing Gibbous
Sep 19
Full
Sep 26
Last Quarter
Oct 4
New
Oct 11
First Quarter

Hourly Weather History & Observations

Time (AKDT) Temp. Dew Point Humidity Pressure Visibility Wind Dir Wind Speed Gust Speed Precip Events Conditions
12:53 AM 55.9 °F 43.0 °F 62% 29.83 in 10.0 mi East 5.8 mph - N/A   Overcast
1:53 AM 54.0 °F 44.1 °F 69% 29.83 in 10.0 mi Calm Calm - N/A   Overcast
2:53 AM 54.0 °F 44.1 °F 69% 29.82 in 10.0 mi NNE 6.9 mph - 0.00 in Rain Light Rain
3:53 AM 55.0 °F 43.0 °F 64% 29.80 in 10.0 mi ENE 12.7 mph - 0.01 in Rain Light Rain
4:53 AM 54.0 °F 43.0 °F 66% 29.79 in 10.0 mi ENE 8.1 mph - 0.00 in Rain Light Rain
5:53 AM 55.0 °F 43.0 °F 64% 29.78 in 10.0 mi ENE 10.4 mph - 0.00 in   Overcast
6:53 AM 55.9 °F 42.1 °F 60% 29.79 in 10.0 mi ENE 6.9 mph - N/A   Overcast
7:53 AM 55.9 °F 44.1 °F 64% 29.80 in 10.0 mi ENE 8.1 mph - 0.00 in Rain Light Rain
8:53 AM 55.0 °F 46.0 °F 72% 29.81 in 10.0 mi East 6.9 mph - 0.00 in   Overcast
9:53 AM 55.9 °F 46.9 °F 72% 29.83 in 10.0 mi NNE 6.9 mph - 0.00 in   Overcast
10:53 AM 57.0 °F 46.0 °F 67% 29.84 in 10.0 mi East 6.9 mph - 0.00 in Rain Light Rain
11:53 AM 55.9 °F 46.9 °F 72% 29.86 in 7.0 mi ESE 5.8 mph - 0.00 in Rain Light Rain
12:53 PM 62.1 °F 48.0 °F 60% 29.86 in 10.0 mi East 9.2 mph - 0.00 in   Scattered Clouds
1:53 PM 60.1 °F 46.0 °F 60% 29.87 in 10.0 mi SSE 3.5 mph - N/A   Scattered Clouds
2:53 PM 62.1 °F 44.1 °F 52% 29.87 in 10.0 mi SSE 3.5 mph - N/A   Mostly Cloudy
3:53 PM 60.8 °F 44.6 °F 55% 29.87 in 10.0 mi Calm Calm - N/A   Overcast
4:50 PM 59.0 °F 46.4 °F 63% 29.88 in 10.0 mi Calm Calm - N/A   Overcast
5:53 PM 55.4 °F 48.2 °F 77% 29.89 in 5.0 mi East 6.9 mph - N/A Rain Light Rain
6:53 PM 53.6 °F 50.0 °F 88% 29.88 in 10.0 mi SSW 4.6 mph - N/A   Mostly Cloudy
7:48 PM 53.6 °F 48.2 °F 82% 29.88 in 10.0 mi West 4.6 mph - N/A   Mostly Cloudy
8:50 PM 53.6 °F 48.2 °F 82% 29.89 in 10.0 mi West 5.8 mph - N/A   Overcast